Zurück zum Katalog

STARLINK-37835

AktivKommunikationSSO
NORAD 69500·PAYLOAD·🇺🇸 United States

Gestartet Jun 11, 2026 von Vandenberg Space Force Base

Loading…

Nächste Überflüge (nächste 24 Stunden)

TLE

AktuellSource: CelesTrak SupGP

Epoche: Sep 14, 2026, 20:58 UTC

1 69500C 26131Y   26257.87409722  .00031619  00000+0  98183-3 0  2572
2 69500  97.2830 278.8857 0001419  89.6388 120.8509 15.33413585    17

Verfolge STARLINK-37835 in Echtzeit mit AllMySat

Download on the App Store